Temp
9 9 8 8 7 7 7 7 7 7 7 7 6 6 6 5 5 5 5 5 4 4
8 8 8 7 7 7 7 7 7 7 7 6 6 6 6 6 5 5 5 5 4 4
7 7 7 7 7 7 7 7 7 7 7 7 6 6 5 5 5 5 5 4 4 4
7 7 7 7 7 7 7 7 7 7 7 6 6 6 5 5 5 5 4 4 4 3
7 7 7 7 7 7 7 7 7 7 7 6 6 6 5 5 5 4 4 4 3 3
7 7 7 7 7 7 7 6 6 6 5 5 5 5 5 5 4 4 4 4 3 3
7 7 7 6 6 6 5 5 5 5 4 4 4 4 4 4 4 3 3 3 3 3
6 6 5 5 5 5 4 4 4 4 3 3 3 3 3 3 2 2 2 2 2 2
5 5 5 5 4 4 4 3 3 3 2 2 2 2 2 1 1 1 1 1 1 1
5 5 4 4 3 3 3 2 2 2 1 1 1 1 1 1 0 0 0 0 -0 -0
4 4 4 3 3 2 2 1 1 1 1 0 0 0 0 -0 -0 -0 -0 -0 -0 -1
3 3 3 2 2 2 1 1 0 0 -0 -0 0 1 0 -1 -1 -1 -1 -2 -1 -2
3 2 2 2 2 1 1 1 0 0 -0 -0 0 0 0 -1 -4 -4 -4 -4 -4 -4
2 2 1 1 1 1 1 0 0 -0 -0 -1 -1 -0 -0 -5 -5 -5 -5 -5 -4 -5
Height
1525 1523 1521 1520 1520 1519 1518 1517 1516 1515 1513 1512 1510 1507 1505 1502 1501 1499 1497 1496 1494 1493
1523 1521 1520 1518 1517 1516 1515 1514 1512 1511 1509 1507 1505 1503 1500 1497 1494 1493 1491 1489 1488 1486
1521 1520 1519 1517 1516 1514 1513 1511 1509 1506 1504 1502 1499 1496 1493 1490 1488 1486 1484 1482 1480 1479
1520 1519 1518 1516 1514 1512 1510 1507 1505 1502 1499 1496 1493 1490 1486 1484 1481 1478 1476 1474 1471 1470
1520 1518 1516 1514 1512 1510 1507 1504 1500 1497 1494 1490 1487 1483 1480 1476 1473 1470 1467 1466 1462 1460
1518 1516 1514 1512 1509 1505 1502 1499 1495 1491 1487 1483 1480 1476 1472 1468 1464 1461 1458 1456 1452 1450
1516 1513 1510 1507 1504 1500 1497 1492 1488 1484 1480 1476 1472 1468 1463 1459 1455 1452 1448 1446 1443 1440
1512 1509 1506 1503 1499 1495 1491 1486 1482 1477 1473 1469 1464 1460 1455 1450 1445 1441 1437 1435 1432 1429
1508 1505 1502 1498 1494 1489 1484 1480 1475 1471 1466 1461 1457 1452 1448 1443 1436 1431 1426 1423 1420 1417
1503 1500 1496 1492 1487 1482 1477 1473 1468 1464 1458 1453 1449 1444 1439 1433 1427 1422 1417 1413 1408 1405
1499 1495 1491 1486 1481 1476 1471 1466 1461 1456 1450 1444 1439 1435 1429 1424 1418 1413 1409 1404 1400 1395
1493 1489 1485 1480 1475 1471 1465 1459 1453 1448 1441 1436 1431 1427 1421 1416 1410 1404 1399 1396 1391 1387
1488 1483 1478 1474 1469 1464 1459 1451 1446 1440 1436 1430 1423 1420 1414 1409 1403 1397 1392 1387 1382 1378
1482 1477 1473 1467 1463 1456 1450 1444 1439 1433 1428 1422 1416 1410 1405 1401 1397 1392 1385 1380 1373 1369
Wind_Speed
12 12 11 10 12 13 15 14 13 15 18 19 20 21 22 23 23 22 24 24 24 25
8 8 7 7 8 10 12 13 14 15 18 20 22 24 25 26 26 26 27 27 26 28
7 8 8 9 10 12 14 16 18 19 21 23 24 24 26 27 28 29 30 30 30 30
7 8 9 11 11 13 14 16 18 19 21 22 23 24 26 27 28 30 31 32 34 33
9 10 12 13 15 17 19 21 23 24 25 27 27 28 29 30 29 31 32 32 34 36
11 14 16 19 21 22 24 24 25 26 27 28 29 31 31 33 33 33 33 33 35 36
16 19 21 23 24 25 25 26 27 27 28 29 30 31 32 33 34 35 35 35 35 36
19 21 23 24 25 26 27 28 28 29 30 30 31 31 32 34 35 36 36 36 37 37
21 23 25 27 28 29 30 31 32 31 31 31 31 31 30 31 34 35 37 39 39 39
22 25 27 29 31 32 33 34 33 33 33 33 32 31 31 31 33 35 36 38 40 40
24 27 30 32 33 34 35 35 36 36 35 35 34 33 32 31 33 35 35 36 37 39
26 29 32 33 34 35 37 37 37 38 38 38 38 35 31 30 31 32 34 34 34 34
28 31 33 34 35 36 37 39 39 40 38 39 40 35 30 28 27 32 33 34 35 35
31 33 34 36 36 37 38 40 40 41 40 39 38 37 33 27 27 30 34 35 38 38
Wind_Direction
325 326 315 295 290 301 306 304 296 291 294 298 299 301 301 299 298 296 293 289 285 283
341 349 349 333 316 311 311 310 307 302 299 299 299 298 297 295 296 293 290 289 286 282
343 342 339 334 325 319 316 311 309 306 303 301 299 298 295 294 293 289 287 286 284 283
359 360 360 355 347 337 331 325 320 316 312 310 307 305 300 297 294 290 287 283 281 280
14 2 352 343 335 328 323 319 314 310 307 305 303 301 300 299 297 294 291 288 283 280
349 343 338 333 328 324 319 315 312 310 308 306 304 301 299 297 295 293 291 288 284 283
338 335 332 329 325 323 322 320 318 317 316 314 311 308 306 302 299 296 293 290 286 283
336 334 332 330 329 328 328 326 325 322 320 318 315 315 312 309 305 301 298 295 292 288
337 338 336 335 334 333 331 329 327 326 323 321 319 318 313 308 305 303 302 300 297 294
342 342 340 338 337 336 333 331 329 327 325 322 321 321 317 313 306 304 303 302 302 298
343 342 341 338 336 334 331 330 330 328 326 323 324 323 317 312 307 305 305 302 301 300
335 334 334 332 332 331 328 328 328 329 327 323 321 320 314 310 309 307 306 307 304 303
327 327 327 326 326 326 326 325 325 323 324 323 319 317 308 308 316 310 306 307 307 307
322 321 321 320 322 323 323 321 321 318 317 318 320 321 315 313 304 303 306 305 304 310